Volver al catálogo

FENGYUN 1C DEB

ActivoLEO
NORAD 31648·DEBRIS·🇨🇳 China

Lanzado May 10, 1999 desde Taiyuan Satellite Launch Center

Loading…

Próximos Pases (próximas 24 horas)

TLE

EnvejeciendoSource: Space-Track

Época: Sep 9, 2026, 01:06 UTC

1 31648U 99025CBE 26252.04614210  .00004957  00000-0  24261-2 0  9994
2 31648 102.7876 197.0812 0040468 227.1624 132.6132 14.18229371757262

Sigue FENGYUN 1C DEB en tiempo real con AllMySat

Download on the App Store